RH
8 8 8 6 4 3 3 3 2 8 20 30 28 21 21 22 16 10 7 10 12 11 10 9 10 10 10 10 11 12 10 10 9 7 7 6 6 7 7 7 7 7 7 9 11 10 10
9 8 8 8 8 6 4 4 5 3 4 17 32 28 26 20 23 17 11 7 10 12 13 13 14 14 14 14 13 13 13 14 16 15 14 11 10 11 12 11 10 10 9 10 10 12 11
9 9 9 8 8 9 8 6 5 6 5 3 13 31 28 28 23 22 16 12 7 10 13 17 15 15 16 16 17 17 15 15 16 18 19 17 15 14 15 14 12 14 13 13 14 15 18
8 9 9 8 8 8 9 8 8 6 6 7 3 10 31 27 26 24 21 17 13 8 11 16 17 16 17 19 20 18 17 16 16 19 20 19 18 16 15 15 16 16 16 16 18 19 21
11 7 8 9 9 8 8 8 9 8 8 7 8 6 7 30 29 26 24 21 16 11 11 12 14 17 18 18 20 20 18 17 19 20 20 19 17 16 16 17 18 18 20 19 21 24 23
58 43 21 11 8 9 9 8 8 9 8 8 8 8 8 6 29 31 28 24 20 14 12 11 11 13 14 17 19 21 20 20 22 22 21 19 19 19 21 20 20 20 21 22 26 26 26
60 58 58 58 42 22 10 9 9 8 8 8 8 9 9 9 6 30 33 28 23 20 20 17 15 16 14 18 19 22 23 24 24 23 22 21 22 22 22 22 22 22 27 32 30 27 27
35 43 49 55 57 57 50 28 14 10 9 8 8 8 9 9 8 8 32 35 30 23 22 22 22 20 19 16 17 22 25 25 24 24 24 23 22 25 26 28 27 26 29 30 26 24 25
2 2 12 34 49 52 52 55 49 29 12 10 8 8 9 9 8 8 8 31 36 35 28 29 28 25 24 20 16 21 24 27 26 25 25 23 23 26 27 29 28 26 25 25 26 26 28
5 4 4 3 3 21 44 48 55 57 47 17 13 10 9 10 10 9 11 21 33 42 37 30 27 29 28 23 23 26 28 28 27 26 25 25 26 27 29 29 29 29 28 29 30 32 34
5 4 4 3 3 3 2 32 48 57 61 59 56 61 20 10 11 10 9 15 31 40 53 24 26 27 27 27 25 25 28 29 28 28 29 28 29 30 32 31 32 32 32 34 35 35 40
7 6 5 4 3 3 2 2 5 53 57 59 62 67 63 31 11 11 9 10 36 36 37 24 27 26 28 28 29 30 31 31 30 33 34 33 33 32 34 36 34 36 36 37 38 45 64
4 3 3 3 3 3 3 3 2 2 30 61 62 68 64 62 23 12 11 10 33 40 23 22 21 27 29 29 29 30 31 32 32 34 34 35 36 36 36 36 36 39 40 41 59 78 68
2 2 1 2 2 2 2 2 2 2 2 8 65 60 75 64 68 26 12 14 37 29 24 26 24 27 30 28 29 30 32 34 35 35 36 36 40 36 38 39 38 39 41 41 56 69 63
1 1 1 1 1 1 1 1 2 1 1 4 10 69 62 65 59 58 19 20 27 21 25 29 28 31 30 29 31 33 34 31 31 32 38 37 39 36 38 41 42 45 46 42 44 55 66
3 3 3 3 4 4 4 4 3 4 6 18 20 16 51 58 38 27 22 20 19 17 22 28 34 34 31 30 34 35 36 31 31 33 37 39 42 41 44 46 46 45 45 48 47 62 68
5 6 6 6 5 5 5 12 20 10 16 70 91 94 20 85 67 62 42 44 27 18 13 20 28 39 38 32 33 34 38 30 32 31 38 42 43 49 52 48 44 46 49 50 48 49 77
7 8 7 7 9 6 5 13 24 66 17 44 100 100 100 84 98 82 83 70 66 29 15 14 23 34 44 39 36 37 37 32 34 35 37 43 46 46 45 47 49 50 50 50 47 58 60
11 10 8 7 8 11 14 11 75 65 70 85 95 98 100 99 98 87 75 70 84 69 59 16 16 17 24 29 40 38 34 28 32 37 38 40 52 55 62 60 56 58 52 53 52 54 57
15 18 15 13 8 6 17 40 80 87 73 100 98 97 95 98 98 99 92 73 78 71 63 45 15 20 32 37 33 40 35 36 35 41 46 46 48 41 46 39 43 55 51 52 56 59 60
100 100 83 58 17 12 7 24 42 96 92 100 98 97 97 98 99 99 100 88 72 64 69 50 39 36 31 35 30 39 41 35 42 48 50 56 53 48 47 50 49 53 61 57 56 51 62
34 54 95 95 69 31 16 10 27 90 100 91 96 97 97 97 98 98 99 96 87 63 61 69 67 68 43 32 24 38 37 38 42 46 53 59 57 54 59 61 64 68 68 65 69 70 70
38 37 32 63 83 55 35 15 27 63 95 87 77 97 98 91 91 96 96 97 85 91 63 51 48 55 51 52 61 45 56 53 61 58 54 57 56 62 69 68 78 95 48 51 42 35 35
41 40 43 36 38 73 68 67 18 15 77 91 98 100 98 89 96 97 94 99 98 98 86 57 64 65 81 81 68 76 67 64 81 68 65 61 61 72 76 91 96 66 45 35 26 22 30
59 71 55 50 32 44 72 79 62 13 15 80 88 97 98 96 89 82 85 93 93 97 96 98 66 53 53 76 89 98 98 88 87 79 74 72 70 80 80 97 68 57 38 30 29 22 22
88 92 92 86 50 31 42 64 73 74 51 16 66 100 99 97 81 80 100 95 96 95 97 95 70 59 91 86 90 89 93 78 70 86 83 81 83 82 99 94 92 53 31 39 35 29 20
92 86 85 87 90 59 48 46 61 76 75 50 26 94 99 97 67 82 97 88 80 92 96 98 95 76 54 85 92 89 90 74 73 66 82 96 98 94 96 94 76 70 51 41 51 20 34
89 93 91 92 94 82 75 72 52 74 81 60 48 85 100 89 90 76 95 100 95 82 96 96 98 98 84 99 98 92 81 79 80 72 72 74 98 99 100 99 90 70 60 52 26 36 46
89 86 92 90 88 73 73 77 57 76 88 54 54 81 100 100 93 83 73 96 88 54 88 96 97 98 90 86 93 90 84 76 84 84 83 86 70 67 78 69 48 34 34 40 43 50 57
Wind_Speed
13 13 12 12 12 12 12 13 12 12 11 8 6 5 7 8 9 10 10 10 9 8 10 11 11 12 12 11 12 9 10 10 10 11 12 12 11 11 11 11 14 14 13 12 13 12 12
14 14 14 13 12 12 11 11 12 12 12 11 8 7 6 9 9 10 11 12 12 11 10 11 11 11 11 11 12 11 11 10 10 10 11 11 11 10 10 11 12 10 12 12 12 11 11
15 16 16 15 14 13 13 12 12 12 12 12 12 9 7 8 9 10 11 12 13 13 13 13 13 14 14 14 13 13 13 12 12 11 10 11 11 11 10 10 13 12 12 12 12 12 14
17 17 16 16 17 17 15 14 12 14 13 12 12 12 9 8 9 10 12 12 12 14 14 13 13 14 15 14 14 15 14 14 13 13 12 12 12 13 12 13 12 12 13 14 14 15 17
19 19 19 18 18 18 18 17 16 14 15 15 13 13 12 10 9 10 12 13 13 14 15 15 15 16 17 17 15 14 15 15 15 14 14 14 14 14 15 15 14 15 12 15 15 15 19
19 20 21 21 21 20 20 20 18 18 16 16 16 15 13 13 11 11 12 13 14 16 17 18 19 18 20 12 16 16 16 16 16 15 15 15 16 17 17 18 14 15 17 18 17 15 18
28 30 24 22 22 22 22 21 23 21 19 18 17 17 17 15 14 13 13 14 16 19 20 20 17 15 21 13 17 17 18 18 18 18 17 17 19 20 15 16 19 17 15 16 16 18 21
27 27 29 33 31 27 26 25 23 23 23 21 19 19 18 18 16 15 14 15 16 19 20 21 23 24 24 21 20 19 19 20 20 20 19 20 22 18 19 18 20 20 18 18 18 18 21
29 28 28 29 33 37 32 30 28 26 24 24 23 20 20 21 20 18 17 17 17 19 23 25 25 26 25 25 25 23 22 21 21 21 21 22 17 15 20 19 19 18 19 17 17 18 21
33 33 34 34 31 33 36 37 33 32 28 24 23 22 20 21 22 21 20 19 18 17 15 20 21 26 28 25 25 23 23 22 23 20 20 18 25 23 20 20 19 19 18 18 18 15 10
37 38 38 38 38 38 35 36 36 37 34 29 26 24 21 21 22 24 22 20 17 14 3 9 18 22 22 27 23 24 26 24 24 21 21 16 16 20 24 21 20 19 17 15 15 16 19
45 45 44 44 43 42 42 40 38 39 39 38 34 33 25 22 22 23 23 21 16 11 10 9 12 16 22 25 27 20 23 26 25 24 24 25 20 17 20 21 20 18 15 13 16 13 6
49 50 52 52 52 49 48 46 44 40 43 40 41 43 38 29 22 22 22 21 15 12 11 14 20 19 17 23 27 27 24 26 25 21 28 27 27 26 23 21 21 20 12 3 3 1 5
52 53 54 57 59 59 58 52 50 47 44 44 42 42 46 37 31 23 25 22 20 10 28 13 11 16 21 22 25 28 29 28 29 28 17 16 12 27 26 28 20 19 20 8 6 3 4
56 51 52 60 64 65 65 63 53 51 49 45 45 44 40 38 33 29 28 32 28 33 19 22 27 20 22 23 23 22 31 33 32 32 24 13 15 16 22 22 24 16 20 20 7 6 3
44 42 41 46 49 44 45 44 51 48 47 42 44 46 46 34 31 27 32 47 38 33 28 24 23 16 18 28 27 24 22 16 32 33 28 21 11 15 20 21 25 23 13 8 10 3 5
39 38 39 39 45 46 38 40 36 37 36 33 35 38 47 35 34 32 44 47 44 39 37 38 35 27 22 20 22 27 16 21 20 19 32 33 22 13 19 23 28 27 27 16 10 7 5
36 34 35 39 37 39 36 35 34 28 27 29 29 35 36 38 34 44 55 62 51 42 38 43 43 30 26 29 30 26 26 24 11 19 24 31 17 22 24 20 22 28 29 29 15 8 10
35 33 31 35 36 36 32 31 27 27 20 19 35 32 31 29 38 45 48 56 55 51 51 45 46 43 41 42 33 30 33 33 29 27 16 25 20 9 5 19 26 28 33 32 33 22 21
35 34 32 31 33 34 33 26 23 25 24 20 26 27 26 27 41 45 47 51 52 50 43 47 47 43 39 38 36 34 28 23 27 31 29 24 25 22 21 10 8 24 35 34 32 21 25
33 33 34 33 30 31 31 27 27 23 26 23 28 25 22 20 28 42 49 50 51 52 49 49 48 50 44 40 42 43 38 32 28 27 32 33 28 31 35 25 20 19 18 20 33 39 31
34 33 32 33 30 28 29 28 24 25 27 28 28 27 23 21 29 30 31 57 57 55 47 47 50 50 45 44 44 37 33 38 37 30 34 39 28 32 35 30 30 32 29 33 35 37 44
37 36 35 33 32 30 28 26 23 23 25 30 31 35 28 31 28 32 29 33 45 46 52 43 46 39 47 48 39 34 35 34 32 33 38 38 37 33 20 23 22 19 40 41 41 43 45
40 38 36 36 33 30 30 27 24 23 24 30 30 32 35 39 31 33 33 31 34 28 45 48 47 42 49 40 31 35 36 34 30 35 34 34 37 32 13 11 6 22 29 31 29 32 36
42 40 38 35 32 30 28 28 25 23 23 30 36 40 39 40 35 34 32 33 35 40 35 34 42 40 40 33 36 34 30 31 38 33 34 34 33 21 13 20 26 20 15 19 21 33 25
43 41 39 37 33 31 28 26 28 25 24 29 35 34 42 39 47 32 35 31 29 29 31 42 40 36 29 31 29 29 20 30 21 24 36 35 34 34 17 7 8 9 13 19 23 29 25
43 41 39 38 35 33 31 31 30 29 30 31 33 33 35 42 49 37 37 36 35 34 29 32 34 36 37 36 30 28 31 26 25 31 26 39 37 41 33 17 19 20 19 18 14 26 12
43 41 39 37 35 33 31 31 30 30 32 34 32 33 34 42 44 42 32 34 28 35 38 29 33 36 34 36 37 26 31 32 31 29 33 37 30 27 29 19 21 30 31 32 28 17 18
39 38 36 33 33 31 31 30 30 31 32 29 34 30 32 37 44 44 40 31 32 34 40 33 31 17 35 36 35 32 29 27 39 37 34 31 38 33 31 29 37 16 18 14 16 19 21
Wind_Direction
348 351 353 356 359 359 3 360 5 7 2 1 352 302 276 262 250 241 240 237 237 238 236 237 240 243 241 239 239 253 227 225 223 222 223 223 223 230 238 245 244 245 248 245 240 238 239
334 335 337 340 341 341 345 347 349 354 355 352 351 334 290 271 259 249 244 242 244 239 241 242 243 244 245 247 248 242 236 232 232 231 230 226 224 232 248 250 246 249 244 242 245 246 248
316 319 323 325 327 328 328 330 331 336 340 344 342 338 322 285 265 257 248 243 245 249 245 250 248 245 248 250 252 247 241 241 241 240 237 235 233 236 244 250 244 249 241 242 242 243 251
306 306 305 309 312 317 317 317 320 320 322 328 331 330 323 304 280 267 259 249 245 247 246 244 250 251 258 256 252 245 241 240 240 245 241 237 241 242 240 247 253 237 239 238 245 249 251
306 305 304 302 303 303 304 308 308 308 309 312 315 319 319 307 289 273 265 261 250 244 245 250 251 255 256 253 254 245 240 237 238 241 239 236 232 234 239 240 242 239 243 244 246 246 247
297 302 302 300 300 298 297 296 295 298 299 299 303 305 307 307 294 280 267 259 254 250 246 253 257 256 253 253 243 242 243 239 242 239 233 230 231 234 236 231 228 239 247 252 249 258 251
298 297 289 291 296 296 295 292 291 288 287 291 291 293 297 298 296 283 273 263 257 257 254 253 251 250 251 253 242 239 237 238 237 233 232 233 233 238 253 245 242 250 260 258 257 260 264
298 297 296 289 286 284 288 290 288 284 282 280 284 286 286 286 288 283 271 264 262 261 262 256 251 250 249 248 246 239 235 235 235 236 234 234 242 245 247 248 246 251 255 257 262 263 267
304 299 292 286 284 283 280 275 280 282 279 276 274 276 282 282 279 278 273 263 260 264 270 265 259 254 249 245 243 237 232 234 234 235 235 237 244 246 246 246 242 246 251 256 261 272 276
297 294 293 291 286 278 277 276 271 271 273 273 272 270 271 277 278 276 271 266 264 264 271 268 258 246 240 235 235 229 228 229 230 234 233 243 243 247 247 240 241 249 254 256 260 267 272
292 292 290 287 285 283 281 275 272 266 260 263 270 275 269 270 272 273 271 266 259 252 325 256 238 236 229 221 229 228 228 228 230 233 225 232 240 242 240 241 240 246 255 256 260 268 279
291 290 286 283 282 280 278 275 273 268 263 258 259 268 272 269 267 271 271 266 251 218 239 245 237 228 226 223 225 226 222 224 227 229 233 237 243 240 235 236 236 244 249 259 269 267 265
287 286 284 281 278 275 274 272 270 266 265 263 256 258 261 266 268 268 266 261 232 225 225 244 242 235 229 227 226 226 226 223 219 218 232 238 241 243 241 233 235 236 234 266 300 198 230
287 283 280 277 274 272 270 266 265 265 262 263 258 252 252 256 257 265 262 245 225 236 226 238 232 233 230 229 228 228 228 227 225 229 236 232 238 237 240 234 235 233 220 211 219 207 264
291 285 277 275 276 273 269 266 260 259 257 256 257 254 249 242 247 246 251 235 235 235 238 250 252 237 231 231 225 230 232 236 236 235 225 224 229 231 230 229 224 224 218 231 246 276 306
296 293 289 291 297 294 289 288 281 267 256 252 252 251 248 241 234 235 238 248 246 236 233 247 251 253 240 234 225 225 228 241 239 236 233 235 235 235 225 224 223 220 218 202 204 187 247
299 295 293 291 285 294 294 288 286 285 271 249 251 253 249 246 243 232 233 244 252 246 245 245 252 252 248 241 236 234 232 244 236 237 230 228 227 229 221 227 228 219 221 217 212 215 182
304 300 295 292 293 294 293 288 278 282 280 259 257 252 255 256 251 242 243 245 248 251 247 248 248 246 245 250 255 242 236 239 242 238 232 224 226 233 238 237 231 229 235 235 220 217 215
309 311 309 305 300 298 296 286 292 270 273 266 257 259 243 241 236 246 248 251 248 253 251 249 252 250 252 253 252 255 258 256 250 248 243 225 214 203 235 242 233 228 231 231 228 240 235
305 309 313 314 309 302 296 285 285 272 257 254 284 283 263 263 247 244 252 253 248 253 255 248 250 252 251 249 249 248 249 247 248 242 233 226 220 219 223 241 216 222 237 235 231 230 242
306 306 304 308 313 310 303 287 276 264 253 259 256 285 278 252 256 256 246 249 253 250 247 243 243 251 246 250 253 250 247 248 244 239 234 222 229 236 239 243 237 242 246 238 233 243 235
307 306 302 299 301 311 312 303 278 263 249 244 262 280 282 269 267 263 254 246 242 248 247 244 242 242 254 251 248 251 257 252 252 247 231 227 232 240 247 246 251 255 256 257 256 256 257
303 302 302 296 292 295 306 309 294 267 254 252 248 261 281 289 285 278 278 262 247 249 244 244 250 249 246 250 259 264 254 254 255 259 245 230 229 233 247 252 251 257 250 254 260 264 264
302 300 297 297 289 288 290 299 295 293 257 250 250 259 287 279 288 291 287 273 261 240 249 250 248 248 251 251 249 245 254 254 251 245 241 240 229 227 243 215 251 255 256 258 255 255 258
297 296 294 292 289 283 285 284 296 289 278 257 252 255 268 286 279 284 289 290 279 251 236 238 245 243 243 253 241 251 250 248 242 237 233 232 229 218 219 212 252 250 254 253 257 271 264
297 295 294 292 289 281 281 284 283 289 296 270 261 263 260 276 274 282 291 289 294 284 251 241 239 242 231 239 227 226 228 237 230 230 227 227 224 219 209 215 229 261 245 248 255 268 275
293 290 290 288 285 281 283 280 280 283 285 293 268 262 262 267 256 268 273 286 288 280 283 249 233 237 234 228 221 216 224 232 226 226 216 211 216 217 221 233 257 243 242 252 254 274 276
291 287 287 284 284 278 280 279 277 281 287 292 269 258 265 262 271 265 272 273 276 268 273 276 238 222 222 213 216 222 228 233 239 236 225 219 202 212 217 227 252 250 250 243 272 269 287
290 285 284 282 284 275 279 280 274 278 285 289 265 265 262 257 271 267 261 272 264 275 268 259 255 213 222 220 220 227 226 226 231 234 228 218 224 221 218 233 243 257 269 254 267 275 292